Time,TemperatureF,DewpointF,PressureIn,WindDirection,WindDirectionDegrees,WindSpeedMPH,WindSpeedGustMPH,Humidity,HourlyPrecipIn,Conditions,Clouds,dailyrainin,SoftwareType,DateUTC
2013-05-06 00:03:00,47.8,46.5,29.95,NE,45,0.0,0.0,95,0.00,RA,,0.00,WeatherDisplay:10.37,2013-05-06 05:03:00,
2013-05-06 00:08:00,47.7,46.3,29.95,NE,45,0.0,0.0,95,0.00,CLR,,0.00,WeatherDisplay:10.37,2013-05-06 05:08:00,
2013-05-06 00:13:00,47.5,46.4,29.95,NE,45,0.0,0.0,96,0.00,CLR,,0.00,WeatherDisplay:10.37,2013-05-06 05:13:00,
2013-05-06 00:18:00,47.3,46.2,29.95,NE,45,0.0,0.0,96,0.00,CLR,,0.00,WeatherDisplay:10.37,2013-05-06 05:18:00,
2013-05-06 00:23:00,47.1,46.3,29.95,NE,45,0.0,0.0,97,0.00,CLR,,0.00,WeatherDisplay:10.37,2013-05-06 05:23:00,
2013-05-06 00:28:00,46.8,46.2,29.95,NE,45,0.0,0.0,98,0.00,CLR,,0.00,WeatherDisplay:10.37,2013-05-06 05:28:00,
2013-05-06 00:33:00,46.7,46.2,29.95,NE,45,0.0,0.0,98,0.00,CLR,,0.00,WeatherDisplay:10.37,2013-05-06 05:33:00,
2013-05-06 00:38:00,46.6,46.0,29.95,NE,45,0.0,0.0,98,0.00,CLR,,0.00,WeatherDisplay:10.37,2013-05-06 05:38:00,
2013-05-06 00:43:00,46.4,46.1,29.95,NE,45,0.0,0.0,99,0.00,CLR,,0.00,WeatherDisplay:10.37,2013-05-06 05:43:00,
2013-05-06 00:48:00,46.4,46.1,29.95,NE,45,0.0,0.0,99,0.00,CLR,,0.00,WeatherDisplay:10.37,2013-05-06 05:48:00,
2013-05-06 00:53:00,46.2,45.4,29.95,NE,45,0.0,0.0,97,0.00,CLR,,0.00,WeatherDisplay:10.37,2013-05-06 05:53:00,
2013-05-06 00:58:00,46.2,45.4,29.94,NE,45,0.0,0.0,97,0.00,CLR,,0.00,WeatherDisplay:10.37,2013-05-06 05:58:00,
2013-05-06 01:03:00,46.2,45.4,29.95,NE,45,0.0,0.0,97,0.00,CLR,,0.00,WeatherDisplay:10.37,2013-05-06 06:03:00,
2013-05-06 01:08:00,46.1,45.3,29.94,NE,45,0.0,0.0,97,0.00,CLR,,0.00,WeatherDisplay:10.37,2013-05-06 06:08:00,
2013-05-06 01:13:00,46.0,45.2,29.95,NE,45,0.0,0.0,97,0.00,CLR,,0.00,WeatherDisplay:10.37,2013-05-06 06:13:00,
2013-05-06 01:18:00,45.9,45.1,29.95,NE,45,0.0,0.0,97,0.00,CLR,,0.00,WeatherDisplay:10.37,2013-05-06 06:18:00,
2013-05-06 01:23:00,45.9,45.1,29.94,NE,45,0.0,0.0,97,0.00,CLR,,0.00,WeatherDisplay:10.37,2013-05-06 06:23:00,
2013-05-06 01:28:00,45.7,44.9,29.94,NNE,30,0.0,0.0,97,0.00,CLR,,0.00,WeatherDisplay:10.37,2013-05-06 06:28:00,
2013-05-06 01:33:00,45.6,44.8,29.94,NNW,335,0.0,0.0,97,0.00,CLR,,0.00,WeatherDisplay:10.37,2013-05-06 06:33:00,
2013-05-06 01:38:00,45.5,44.7,29.94,NW,315,0.0,0.0,97,0.00,CLR,,0.00,WeatherDisplay:10.37,2013-05-06 06:38:00,
2013-05-06 01:43:00,45.3,44.5,29.94,NW,315,0.0,0.0,97,0.00,CLR,,0.00,WeatherDisplay:10.37,2013-05-06 06:43:00,
2013-05-06 01:48:00,45.3,44.5,29.94,NW,315,0.0,0.0,97,0.00,CLR,,0.00,WeatherDisplay:10.37,2013-05-06 06:48:00,
2013-05-06 01:53:00,45.1,44.3,29.94,NW,315,0.0,0.0,97,0.00,CLR,,0.00,WeatherDisplay:10.37,2013-05-06 06:53:00,
2013-05-06 01:58:00,45.1,44.3,29.93,NW,312,0.0,0.0,97,0.00,CLR,,0.00,WeatherDisplay:10.37,2013-05-06 06:58:00,
2013-05-06 02:03:00,45.1,44.3,29.93,NW,312,0.0,0.0,97,0.00,CLR,,0.00,WeatherDisplay:10.37,2013-05-06 07:03:00,
2013-05-06 02:08:00,45.0,44.2,29.93,NW,315,0.0,0.0,97,0.00,CLR,,0.00,WeatherDisplay:10.37,2013-05-06 07:08:00,
2013-05-06 02:13:00,45.0,44.2,29.93,NW,315,0.0,0.0,97,0.00,CLR,,0.00,WeatherDisplay:10.37,2013-05-06 07:13:00,
2013-05-06 02:18:00,45.0,44.2,29.93,NW,315,0.0,0.0,97,0.00,CLR,,0.00,WeatherDisplay:10.37,2013-05-06 07:18:00,
2013-05-06 02:23:00,44.8,44.0,29.93,NW,315,0.0,0.0,97,0.00,CLR,,0.00,WeatherDisplay:10.37,2013-05-06 07:23:00,
2013-05-06 02:28:00,44.8,44.0,29.93,NW,315,0.0,0.0,97,0.00,CLR,,0.00,WeatherDisplay:10.37,2013-05-06 07:28:00,
2013-05-06 02:33:00,44.7,43.9,29.93,NW,315,0.0,0.0,97,0.00,CLR,,0.00,WeatherDisplay:10.37,2013-05-06 07:33:00,
2013-05-06 02:38:00,44.6,43.8,29.93,NW,315,0.0,0.0,97,0.00,CLR,,0.00,WeatherDisplay:10.37,2013-05-06 07:38:00,
2013-05-06 02:43:00,44.6,43.8,29.93,NW,315,0.0,0.0,97,0.00,CLR,,0.00,WeatherDisplay:10.37,2013-05-06 07:43:00,
2013-05-06 02:48:00,44.6,43.8,29.93,NW,315,0.0,0.0,97,0.00,CLR,,0.00,WeatherDisplay:10.37,2013-05-06 07:48:00,
2013-05-06 02:53:00,44.5,43.7,29.93,NW,315,0.0,0.0,97,0.00,CLR,,0.00,WeatherDisplay:10.37,2013-05-06 07:53:00,
2013-05-06 02:58:00,44.2,43.7,29.93,NW,315,0.0,0.0,98,0.00,CLR,,0.00,WeatherDisplay:10.37,2013-05-06 07:58:00,
2013-05-06 03:03:00,44.2,43.7,29.93,NW,315,0.0,0.0,98,0.00,CLR,,0.00,WeatherDisplay:10.37,2013-05-06 08:03:00,
2013-05-06 03:08:00,44.6,43.8,29.93,NW,315,0.0,0.0,97,0.00,CLR,,0.00,WeatherDisplay:10.37,2013-05-06 08:08:00,
2013-05-06 03:13:00,44.2,43.7,29.93,NW,309,0.0,0.0,98,0.00,CLR,,0.00,WeatherDisplay:10.37,2013-05-06 08:13:00,
2013-05-06 03:18:00,44.3,43.8,29.94,NW,304,0.0,0.0,98,0.00,CLR,,0.00,WeatherDisplay:10.37,2013-05-06 08:18:00,
2013-05-06 03:23:00,44.4,43.9,29.94,NW,310,0.0,0.0,98,0.00,CLR,,0.00,WeatherDisplay:10.37,2013-05-06 08:23:00,
2013-05-06 03:28:00,44.6,43.8,29.94,NW,315,0.0,0.0,97,0.00,CLR,,0.00,WeatherDisplay:10.37,2013-05-06 08:28:00,
2013-05-06 03:33:00,44.6,43.8,29.94,NW,315,0.0,0.0,97,0.00,CLR,,0.00,WeatherDisplay:10.37,2013-05-06 08:33:00,
2013-05-06 03:38:00,44.6,43.8,29.94,NW,315,0.0,0.0,97,0.00,CLR,,0.00,WeatherDisplay:10.37,2013-05-06 08:38:00,
2013-05-06 03:43:00,44.6,43.8,29.94,NW,315,0.0,0.0,97,0.00,CLR,,0.00,WeatherDisplay:10.37,2013-05-06 08:43:00,
2013-05-06 03:48:00,44.6,43.8,29.94,NW,315,0.0,0.0,97,0.00,CLR,,0.00,WeatherDisplay:10.37,2013-05-06 08:48:00,
2013-05-06 03:53:00,44.6,43.8,29.94,NW,308,0.0,0.0,97,0.00,CLR,,0.00,WeatherDisplay:10.37,2013-05-06 08:53:00,
2013-05-06 03:58:00,44.6,43.8,29.94,WNW,285,0.0,0.0,97,0.00,CLR,,0.00,WeatherDisplay:10.37,2013-05-06 08:58:00,
2013-05-06 04:03:00,44.6,43.8,29.93,West,270,0.0,0.0,97,0.00,CLR,,0.00,WeatherDisplay:10.37,2013-05-06 09:03:00,
2013-05-06 04:08:00,44.6,43.8,29.94,West,270,0.0,0.0,97,0.00,CLR,,0.00,WeatherDisplay:10.37,2013-05-06 09:08:00,
2013-05-06 04:13:00,44.5,43.7,29.94,West,270,0.0,0.0,97,0.00,CLR,,0.00,WeatherDisplay:10.37,2013-05-06 09:13:00,
2013-05-06 04:18:00,44.2,43.7,29.93,West,270,0.0,0.0,98,0.00,CLR,,0.00,WeatherDisplay:10.37,2013-05-06 09:18:00,
2013-05-06 04:23:00,44.2,43.7,29.93,West,270,0.0,0.0,98,0.00,CLR,,0.00,WeatherDisplay:10.37,2013-05-06 09:23:00,
2013-05-06 04:28:00,44.1,43.5,29.93,West,270,0.0,0.0,98,0.00,CLR,,0.00,WeatherDisplay:10.37,2013-05-06 09:28:00,
2013-05-06 04:33:00,43.9,43.4,29.93,West,270,0.0,0.0,98,0.00,CLR,,0.00,WeatherDisplay:10.37,2013-05-06 09:33:00,
2013-05-06 04:38:00,43.8,43.2,29.93,West,270,0.0,0.0,98,0.00,CLR,,0.00,WeatherDisplay:10.37,2013-05-06 09:38:00,
2013-05-06 04:43:00,43.7,43.2,29.94,West,270,0.0,0.0,98,0.00,CLR,,0.00,WeatherDisplay:10.37,2013-05-06 09:43:00,
2013-05-06 04:48:00,43.5,43.0,29.94,West,270,0.0,0.0,98,0.00,CLR,,0.00,WeatherDisplay:10.37,2013-05-06 09:48:00,
2013-05-06 04:53:00,43.5,43.0,29.94,West,270,0.0,0.0,98,0.00,CLR,,0.00,WeatherDisplay:10.37,2013-05-06 09:53:00,
2013-05-06 04:58:00,43.3,42.8,29.94,West,270,0.0,0.0,98,0.00,CLR,,0.00,WeatherDisplay:10.37,2013-05-06 09:58:00,
2013-05-06 05:03:00,43.3,42.8,29.94,West,270,0.0,0.0,98,0.00,CLR,,0.00,WeatherDisplay:10.37,2013-05-06 10:03:00,
2013-05-06 05:08:00,43.2,42.6,29.94,West,270,0.0,0.0,98,0.00,CLR,,0.00,WeatherDisplay:10.37,2013-05-06 10:08:00,
2013-05-06 05:13:00,43.2,42.6,29.94,West,270,0.0,0.0,98,0.00,CLR,,0.00,WeatherDisplay:10.37,2013-05-06 10:13:00,
2013-05-06 05:18:00,43.0,42.5,29.94,West,270,0.0,0.0,98,0.00,CLR,,0.00,WeatherDisplay:10.37,2013-05-06 10:18:00,
2013-05-06 05:23:00,43.0,42.5,29.94,West,270,0.0,0.0,98,0.00,CLR,,0.00,WeatherDisplay:10.37,2013-05-06 10:23:00,
2013-05-06 05:28:00,43.0,42.5,29.94,West,270,0.0,0.0,98,0.00,CLR,,0.00,WeatherDisplay:10.37,2013-05-06 10:28:00,
2013-05-06 05:33:00,42.8,42.3,29.94,West,270,0.0,0.0,98,0.00,CLR,,0.00,WeatherDisplay:10.37,2013-05-06 10:33:00,
2013-05-06 05:38:00,42.8,42.3,29.94,West,270,0.0,0.0,98,0.00,CLR,,0.00,WeatherDisplay:10.37,2013-05-06 10:38:00,
2013-05-06 05:43:00,42.8,42.3,29.94,West,270,0.0,0.0,98,0.00,CLR,,0.00,WeatherDisplay:10.37,2013-05-06 10:43:00,
2013-05-06 05:48:00,42.8,42.3,29.94,West,270,0.0,0.0,98,0.00,CLR,,0.00,WeatherDisplay:10.37,2013-05-06 10:48:00,
2013-05-06 05:53:00,42.6,42.4,29.94,West,270,0.0,0.0,99,0.00,,,0.00,WeatherDisplay:10.37,2013-05-06 10:53:00,
2013-05-06 05:58:00,42.6,42.4,29.94,West,270,0.0,0.0,99,0.00,,,0.00,WeatherDisplay:10.37,2013-05-06 10:58:00,
2013-05-06 06:03:00,42.6,42.4,29.94,West,270,0.0,0.0,99,0.00,,,0.00,WeatherDisplay:10.37,2013-05-06 11:03:00,
2013-05-06 06:08:00,42.6,42.4,29.94,West,270,0.0,0.0,99,0.00,,,0.00,WeatherDisplay:10.37,2013-05-06 11:08:00,
2013-05-06 06:13:00,42.6,42.4,29.94,West,270,0.0,0.0,99,0.00,,,0.00,WeatherDisplay:10.37,2013-05-06 11:13:00,
2013-05-06 06:18:00,42.6,42.4,29.94,West,270,0.0,0.0,99,0.00,,,0.00,WeatherDisplay:10.37,2013-05-06 11:18:00,
2013-05-06 06:23:00,42.6,42.4,29.95,West,270,0.0,0.0,99,0.00,,,0.00,WeatherDisplay:10.37,2013-05-06 11:23:00,
2013-05-06 06:28:00,42.8,42.3,29.95,West,270,0.0,0.0,98,0.00,CLR,,0.00,WeatherDisplay:10.37,2013-05-06 11:28:00,
2013-05-06 06:33:00,42.8,42.3,29.95,West,270,0.0,0.0,98,0.00,CLR,,0.00,WeatherDisplay:10.37,2013-05-06 11:33:00,
2013-05-06 06:38:00,42.8,42.3,29.95,West,270,0.0,0.0,98,0.00,CLR,,0.00,WeatherDisplay:10.37,2013-05-06 11:38:00,
2013-05-06 06:43:00,42.8,42.3,29.95,West,270,0.0,0.0,98,0.00,CLR,,0.00,WeatherDisplay:10.37,2013-05-06 11:43:00,
2013-05-06 06:48:00,42.8,42.3,29.96,West,270,0.0,0.0,98,0.00,CLR,,0.00,WeatherDisplay:10.37,2013-05-06 11:48:00,
2013-05-06 06:53:00,42.8,42.3,29.96,West,270,0.0,0.0,98,0.00,CLR,,0.00,WeatherDisplay:10.37,2013-05-06 11:53:00,
2013-05-06 06:58:00,42.8,42.3,29.96,West,270,0.0,0.0,98,0.00,CLR,,0.00,WeatherDisplay:10.37,2013-05-06 11:58:00,
2013-05-06 07:03:00,42.8,42.3,29.96,West,270,0.0,0.0,98,0.00,CLR,,0.00,WeatherDisplay:10.37,2013-05-06 12:03:00,
2013-05-06 07:08:00,42.9,42.4,29.96,West,270,0.0,0.0,98,0.00,CLR,,0.00,WeatherDisplay:10.37,2013-05-06 12:08:00,
2013-05-06 07:13:00,43.0,42.5,29.96,West,270,0.0,0.0,98,0.00,CLR,,0.00,WeatherDisplay:10.37,2013-05-06 12:13:00,
2013-05-06 07:18:00,43.2,42.6,29.96,West,270,0.0,0.0,98,0.00,CLR,,0.00,WeatherDisplay:10.37,2013-05-06 12:18:00,
2013-05-06 07:23:00,43.3,42.8,29.97,West,270,0.0,0.0,98,0.00,CLR,,0.00,WeatherDisplay:10.37,2013-05-06 12:23:00,
2013-05-06 07:28:00,43.7,43.2,29.97,West,270,0.0,0.0,98,0.00,CLR,,0.00,WeatherDisplay:10.37,2013-05-06 12:28:00,
2013-05-06 07:33:00,43.9,43.4,29.97,West,270,0.0,0.0,98,0.00,CLR,,0.00,WeatherDisplay:10.37,2013-05-06 12:33:00,
2013-05-06 07:38:00,44.1,43.6,29.97,West,270,0.0,0.0,98,0.00,CLR,,0.00,WeatherDisplay:10.37,2013-05-06 12:38:00,
2013-05-06 07:43:00,44.8,44.0,29.97,West,270,0.0,0.0,97,0.00,CLR,,0.00,WeatherDisplay:10.37,2013-05-06 12:43:00,
2013-05-06 07:48:00,45.1,44.3,29.97,West,270,0.0,0.0,97,0.00,CLR,,0.00,WeatherDisplay:10.37,2013-05-06 12:48:00,
2013-05-06 07:53:00,45.4,44.6,29.97,West,270,0.0,0.0,97,0.00,CLR,,0.00,WeatherDisplay:10.37,2013-05-06 12:53:00,
2013-05-06 07:58:00,45.8,45.0,29.97,West,270,0.0,0.0,97,0.00,CLR,,0.00,WeatherDisplay:10.37,2013-05-06 12:58:00,
2013-05-06 08:03:00,46.2,45.4,29.97,West,270,0.0,0.0,97,0.00,CLR,,0.00,WeatherDisplay:10.37,2013-05-06 13:03:00,
2013-05-06 08:08:00,47.1,46.8,29.97,West,270,0.0,0.0,99,0.00,CLR,,0.00,WeatherDisplay:10.37,2013-05-06 13:08:00,
2013-05-06 08:13:00,47.9,47.7,29.97,West,270,0.0,0.0,99,0.00,CLR,,0.00,WeatherDisplay:10.37,2013-05-06 13:13:00,
2013-05-06 08:18:00,48.7,48.5,29.97,West,270,0.0,0.0,99,0.00,CLR,,0.00,WeatherDisplay:10.37,2013-05-06 13:18:00,
2013-05-06 08:23:00,49.4,49.1,29.97,West,270,0.0,0.0,99,0.00,CLR,,0.00,WeatherDisplay:10.37,2013-05-06 13:23:00,
2013-05-06 08:28:00,50.3,50.0,29.97,West,270,0.0,0.0,99,0.00,CLR,,0.00,WeatherDisplay:10.37,2013-05-06 13:28:00,
2013-05-06 08:33:00,51.0,50.7,29.97,West,276,0.0,0.0,99,0.00,CLR,,0.00,WeatherDisplay:10.37,2013-05-06 13:33:00,
2013-05-06 08:38:00,51.7,51.2,29.97,North,4,0.0,0.0,98,0.00,CLR,,0.00,WeatherDisplay:10.37,2013-05-06 13:38:00,
2013-05-06 08:43:00,52.4,51.8,29.97,NE,45,0.0,0.0,98,0.00,CLR,,0.00,WeatherDisplay:10.37,2013-05-06 13:43:00,
2013-05-06 08:48:00,53.2,52.6,29.97,NNE,19,0.0,0.0,98,0.00,CLR,,0.00,WeatherDisplay:10.37,2013-05-06 13:48:00,
2013-05-06 08:53:00,54.2,53.3,29.97,NW,307,0.0,0.0,97,0.00,CLR,,0.00,WeatherDisplay:10.37,2013-05-06 13:53:00,
2013-05-06 08:58:00,55.4,54.0,29.97,West,270,0.0,0.0,95,0.00,CLR,,0.00,WeatherDisplay:10.37,2013-05-06 13:58:00,
2013-05-06 09:03:00,55.9,53.9,29.97,NE,45,0.0,0.0,93,0.00,CLR,,0.00,WeatherDisplay:10.37,2013-05-06 14:03:00,
2013-05-06 09:09:00,57.9,54.4,29.97,NE,45,0.0,0.0,88,0.00,CLR,,0.00,WeatherDisplay:10.37,2013-05-06 14:09:00,
2013-05-06 09:14:00,58.8,54.3,29.97,North,0,0.0,0.0,85,0.00,CLR,,0.00,WeatherDisplay:10.37,2013-05-06 14:14:00,
2013-05-06 09:19:00,59.4,53.5,29.97,North,0,0.0,0.0,81,0.00,CLR,,0.00,WeatherDisplay:10.37,2013-05-06 14:19:00,
2013-05-06 09:24:00,60.1,53.5,29.97,North,0,0.0,0.0,79,0.00,CLR,,0.00,WeatherDisplay:10.37,2013-05-06 14:24:00,
2013-05-06 09:29:00,60.8,53.5,29.97,North,0,0.0,0.0,77,0.00,CLR,,0.00,WeatherDisplay:10.37,2013-05-06 14:29:00,
2013-05-06 09:34:00,61.3,53.7,29.97,NE,45,0.0,0.0,76,0.00,CLR,,0.00,WeatherDisplay:10.37,2013-05-06 14:34:00,
2013-05-06 09:39:00,62.2,53.5,29.97,West,270,0.0,0.0,73,0.00,CLR,,0.00,WeatherDisplay:10.37,2013-05-06 14:39:00,
2013-05-06 09:45:00,63.0,53.4,29.97,SW,225,1.6,0.0,71,0.00,CLR,,0.00,WeatherDisplay:10.37,2013-05-06 14:45:00,
2013-05-06 09:50:00,63.5,52.7,29.97,SW,225,1.1,1.1,68,0.00,CLR,,0.00,WeatherDisplay:10.37,2013-05-06 14:50:00,
2013-05-06 09:55:00,64.2,52.2,29.97,West,270,3.5,3.5,65,0.00,CLR,,0.00,WeatherDisplay:10.37,2013-05-06 14:55:00,
2013-05-06 10:00:00,64.8,52.3,29.98,West,270,2.3,2.3,64,0.00,CLR,,0.00,WeatherDisplay:10.37,2013-05-06 15:00:00,
2013-05-06 10:06:00,65.3,52.4,29.98,NE,45,4.6,4.6,63,0.00,CLR,,0.00,WeatherDisplay:10.37,2013-05-06 15:06:00,
2013-05-06 10:11:00,65.7,53.1,29.98,East,90,3.5,3.5,64,0.00,CLR,,0.00,WeatherDisplay:10.37,2013-05-06 15:11:00,
2013-05-06 10:16:00,66.2,52.3,29.98,North,0,3.5,3.5,61,0.00,CLR,,0.00,WeatherDisplay:10.37,2013-05-06 15:16:00,
2013-05-06 10:21:00,66.7,52.9,29.98,North,0,3.5,3.5,61,0.00,CLR,,0.00,WeatherDisplay:10.37,2013-05-06 15:21:00,
2013-05-06 10:27:00,66.7,52.0,29.98,NW,315,4.6,4.6,59,0.00,CLR,,0.00,WeatherDisplay:10.37,2013-05-06 15:27:00,
2013-05-06 10:32:00,66.7,52.4,29.97,South,180,3.5,3.5,60,0.00,CLR,,0.00,WeatherDisplay:10.37,2013-05-06 15:32:00,
2013-05-06 10:37:00,67.3,52.9,29.97,North,0,3.5,3.5,60,0.00,CLR,,0.00,WeatherDisplay:10.37,2013-05-06 15:37:00,
2013-05-06 10:42:00,67.5,52.6,29.98,WNW,292,4.6,4.6,59,0.00,CLR,,0.00,WeatherDisplay:10.37,2013-05-06 15:42:00,
2013-05-06 10:48:00,67.5,52.2,29.97,South,180,3.5,3.5,58,0.00,CLR,,0.00,WeatherDisplay:10.37,2013-05-06 15:48:00,
2013-05-06 10:53:00,67.6,52.8,29.97,East,88,2.0,5.0,59,0.00,CLR,,0.00,WeatherDisplay:10.37,2013-05-06 15:53:00,
2013-05-06 10:58:00,67.7,52.9,29.97,North,2,0.0,3.0,59,0.00,CLR,,0.00,WeatherDisplay:10.37,2013-05-06 15:58:00,
2013-05-06 11:03:00,68.4,53.0,29.98,WSW,238,3.0,5.0,58,0.00,CLR,,0.00,WeatherDisplay:10.37,2013-05-06 16:03:00,
2013-05-06 11:08:00,69.0,52.1,29.97,SW,232,2.0,5.0,55,0.00,CLR,,0.00,WeatherDisplay:10.37,2013-05-06 16:08:00,
2013-05-06 11:13:00,69.2,52.8,29.97,WSW,257,1.0,5.0,56,0.00,CLR,,0.00,WeatherDisplay:10.37,2013-05-06 16:13:00,
2013-05-06 11:18:00,69.8,53.4,29.98,North,360,3.0,5.0,56,0.00,CLR,,0.00,WeatherDisplay:10.37,2013-05-06 16:18:00,
2013-05-06 11:23:00,70.0,52.6,29.98,NE,45,3.5,3.5,54,0.00,CLR,,0.00,WeatherDisplay:10.37,2013-05-06 16:23:00,
2013-05-06 11:28:00,70.2,52.7,29.98,NW,314,2.0,5.0,54,0.00,CLR,,0.00,WeatherDisplay:10.37,2013-05-06 16:28:00,
2013-05-06 11:33:00,70.5,52.6,29.98,WSW,258,2.0,5.0,53,0.00,CLR,,0.00,WeatherDisplay:10.37,2013-05-06 16:33:00,
2013-05-06 11:38:00,71.1,53.6,29.97,NW,312,2.0,5.0,54,0.00,CLR,,0.00,WeatherDisplay:10.37,2013-05-06 16:38:00,
2013-05-06 11:43:00,71.4,52.9,29.97,NNE,17,1.0,5.0,52,0.00,CLR,,0.00,WeatherDisplay:10.37,2013-05-06 16:43:00,
2013-05-06 11:48:00,71.4,52.9,29.97,NNW,334,2.0,6.0,52,0.00,CLR,,0.00,WeatherDisplay:10.37,2013-05-06 16:48:00,
2013-05-06 11:53:00,72.0,52.8,29.97,NNW,344,2.0,6.0,51,0.00,CLR,,0.00,WeatherDisplay:10.37,2013-05-06 16:53:00,
2013-05-06 11:58:00,72.1,52.5,29.97,NNW,336,1.0,3.0,50,0.00,CLR,,0.00,WeatherDisplay:10.37,2013-05-06 16:58:00,
2013-05-06 12:03:00,72.1,53.0,29.97,NNW,344,1.0,6.0,51,0.00,CLR,,0.00,WeatherDisplay:10.37,2013-05-06 17:03:00,
2013-05-06 12:08:00,72.8,53.6,29.97,NNW,330,2.0,5.0,51,0.00,CLR,,0.00,WeatherDisplay:10.37,2013-05-06 17:08:00,
2013-05-06 12:13:00,73.0,53.3,29.97,WNW,293,1.0,3.0,50,0.00,CLR,,0.00,WeatherDisplay:10.37,2013-05-06 17:13:00,
2013-05-06 12:18:00,73.6,53.2,29.96,West,273,1.0,3.0,49,0.00,CLR,,0.00,WeatherDisplay:10.37,2013-05-06 17:18:00,
2013-05-06 12:23:00,73.9,54.1,29.96,NNW,346,1.0,4.0,50,0.00,CLR,,0.00,WeatherDisplay:10.37,2013-05-06 17:23:00,
2013-05-06 12:28:00,74.3,53.9,29.95,NNW,334,1.0,4.0,49,0.00,CLR,,0.00,WeatherDisplay:10.37,2013-05-06 17:28:00,
2013-05-06 12:33:00,74.3,52.8,29.95,West,280,2.0,5.0,47,0.00,CLR,,0.00,WeatherDisplay:10.37,2013-05-06 17:33:00,
2013-05-06 12:38:00,74.3,53.3,29.95,West,268,1.0,4.0,48,0.00,CLR,,0.00,WeatherDisplay:10.37,2013-05-06 17:38:00,
2013-05-06 12:43:00,74.8,54.4,29.95,WNW,293,2.0,6.0,49,0.00,CLR,,0.00,WeatherDisplay:10.37,2013-05-06 17:43:00,
2013-05-06 12:48:00,75.6,53.9,29.95,WNW,302,1.0,3.0,47,0.00,CLR,,0.00,WeatherDisplay:10.37,2013-05-06 17:48:00,
2013-05-06 12:53:00,76.1,54.4,29.94,NW,319,1.0,5.0,47,0.00,CLR,,0.00,WeatherDisplay:10.37,2013-05-06 17:53:00,
2013-05-06 12:58:00,76.5,54.7,29.94,NW,322,1.0,4.0,47,0.00,CLR,,0.00,WeatherDisplay:10.37,2013-05-06 17:58:00,
2013-05-06 13:03:00,76.5,54.7,29.94,North,10,2.0,6.0,47,0.00,CLR,,0.00,WeatherDisplay:10.37,2013-05-06 18:03:00,
2013-05-06 13:08:00,75.9,54.2,29.93,North,359,2.0,4.0,47,0.00,CLR,,0.00,WeatherDisplay:10.37,2013-05-06 18:08:00,
2013-05-06 13:13:00,75.9,54.2,29.93,SW,225,5.8,5.8,47,0.00,CLR,,0.00,WeatherDisplay:10.37,2013-05-06 18:13:00,
2013-05-06 13:18:00,75.6,53.9,29.93,SW,234,1.0,4.0,47,0.00,CLR,,0.00,WeatherDisplay:10.37,2013-05-06 18:18:00,
2013-05-06 13:23:00,75.8,54.1,29.93,WSW,253,2.0,3.0,47,0.00,CLR,,0.00,WeatherDisplay:10.37,2013-05-06 18:23:00,
2013-05-06 13:28:00,76.1,55.0,29.93,NNW,347,2.0,3.0,48,0.00,CLR,,0.00,WeatherDisplay:10.37,2013-05-06 18:28:00,
2013-05-06 13:33:00,76.1,54.4,29.93,North,10,2.0,4.0,47,0.00,CLR,,0.00,WeatherDisplay:10.37,2013-05-06 18:33:00,
2013-05-06 13:38:00,76.3,53.4,29.92,NNE,15,1.0,3.0,45,0.00,CLR,,0.00,WeatherDisplay:10.37,2013-05-06 18:38:00,
2013-05-06 13:43:00,76.8,55.6,29.92,NW,321,1.0,4.0,48,0.00,CLR,,0.00,WeatherDisplay:10.37,2013-05-06 18:43:00,
2013-05-06 13:48:00,77.7,54.7,29.93,NW,315,5.8,5.8,45,0.00,CLR,,0.00,WeatherDisplay:10.37,2013-05-06 18:48:00,
2013-05-06 13:53:00,77.7,54.7,29.93,WNW,298,1.0,3.0,45,0.00,CLR,,0.00,WeatherDisplay:10.37,2013-05-06 18:53:00,
2013-05-06 13:58:00,78.5,55.4,29.92,NNW,337,0.0,2.0,45,0.00,CLR,,0.00,WeatherDisplay:10.37,2013-05-06 18:58:00,
2013-05-06 14:03:00,79.2,54.7,29.92,North,351,2.0,3.0,43,0.00,CLR,,0.00,WeatherDisplay:10.37,2013-05-06 19:03:00,
2013-05-06 14:08:00,78.6,54.9,29.91,NW,315,3.5,3.5,44,0.00,CLR,,0.00,WeatherDisplay:10.37,2013-05-06 19:08:00,
2013-05-06 14:13:00,78.8,54.4,29.92,West,272,2.0,4.0,43,0.00,CLR,,0.00,WeatherDisplay:10.37,2013-05-06 19:13:00,
2013-05-06 14:18:00,79.7,54.5,29.91,West,280,2.0,3.0,42,0.00,CLR,,0.00,WeatherDisplay:10.37,2013-05-06 19:18:00,
2013-05-06 14:23:00,80.7,54.8,29.91,NW,322,1.0,3.0,41,0.00,CLR,,0.00,WeatherDisplay:10.37,2013-05-06 19:23:00,
2013-05-06 14:28:00,81.0,54.4,29.91,South,180,4.6,4.6,40,0.00,CLR,,0.00,WeatherDisplay:10.37,2013-05-06 19:28:00,
2013-05-06 14:33:00,81.3,55.4,29.90,SW,235,1.0,3.0,41,0.00,CLR,,0.00,WeatherDisplay:10.37,2013-05-06 19:33:00,
2013-05-06 14:38:00,80.9,54.9,29.89,West,259,1.0,2.0,41,0.00,CLR,,0.00,WeatherDisplay:10.37,2013-05-06 19:38:00,
2013-05-06 14:43:00,79.5,54.4,29.89,ENE,63,0.0,3.0,42,0.00,CLR,,0.00,WeatherDisplay:10.37,2013-05-06 19:43:00,
2013-05-06 14:48:00,79.2,54.1,29.89,NNE,29,0.0,2.0,42,0.00,CLR,,0.00,WeatherDisplay:10.37,2013-05-06 19:48:00,
2013-05-06 14:53:00,79.2,54.1,29.89,NNE,31,0.0,2.0,42,0.00,CLR,,0.00,WeatherDisplay:10.37,2013-05-06 19:53:00,
2013-05-06 14:58:00,79.1,54.7,29.89,NE,47,0.0,2.0,43,0.00,CLR,,0.00,WeatherDisplay:10.37,2013-05-06 19:58:00,
2013-05-06 15:03:00,79.0,54.6,29.89,WNW,287,1.0,2.0,43,0.00,CLR,,0.00,WeatherDisplay:10.37,2013-05-06 20:03:00,
2013-05-06 15:08:00,78.6,54.9,29.88,East,90,1.1,0.0,44,0.00,CLR,,0.00,WeatherDisplay:10.37,2013-05-06 20:08:00,
2013-05-06 15:13:00,79.4,54.9,29.88,West,268,1.0,2.0,43,0.00,CLR,,0.00,WeatherDisplay:10.37,2013-05-06 20:13:00,
2013-05-06 15:18:00,80.2,55.0,29.88,WSW,253,1.0,2.0,42,0.00,CLR,,0.00,WeatherDisplay:10.37,2013-05-06 20:18:00,
2013-05-06 15:23:00,81.0,55.8,29.88,WNW,292,1.0,2.0,42,0.00,CLR,,0.00,WeatherDisplay:10.37,2013-05-06 20:23:00,
2013-05-06 15:28:00,80.8,54.9,29.87,East,79,0.0,3.0,41,0.00,CLR,,0.00,WeatherDisplay:10.37,2013-05-06 20:28:00,
2013-05-06 15:33:00,80.8,54.9,29.87,SSE,158,1.0,3.0,41,0.00,CLR,,0.00,WeatherDisplay:10.37,2013-05-06 20:33:00,
2013-05-06 15:38:00,80.8,54.9,29.87,SW,223,0.0,3.0,41,0.00,CLR,,0.00,WeatherDisplay:10.37,2013-05-06 20:38:00,
2013-05-06 15:43:00,80.3,55.1,29.86,SW,225,1.0,2.0,42,0.00,CLR,,0.00,WeatherDisplay:10.37,2013-05-06 20:43:00,
2013-05-06 15:48:00,80.1,55.6,29.86,SW,230,1.0,3.0,43,0.00,CLR,,0.00,WeatherDisplay:10.37,2013-05-06 20:48:00,
2013-05-06 15:53:00,79.9,54.8,29.86,WSW,252,0.0,4.0,42,0.00,CLR,,0.00,WeatherDisplay:10.37,2013-05-06 20:53:00,
2013-05-06 15:58:00,80.2,55.1,29.86,West,265,0.0,3.0,42,0.00,CLR,,0.00,WeatherDisplay:10.37,2013-05-06 20:58:00,
2013-05-06 16:03:00,80.3,55.1,29.86,WNW,286,1.0,4.0,42,0.00,CLR,,0.00,WeatherDisplay:10.37,2013-05-06 21:03:00,
2013-05-06 16:08:00,81.8,55.8,29.86,West,278,1.0,4.0,41,0.00,CLR,,0.00,WeatherDisplay:10.37,2013-05-06 21:08:00,
2013-05-06 16:13:00,81.9,55.2,29.86,NW,317,1.0,3.0,40,0.00,CLR,,0.00,WeatherDisplay:10.37,2013-05-06 21:13:00,
2013-05-06 16:18:00,81.0,53.0,29.86,NNW,342,1.0,4.0,38,0.00,CLR,,0.00,WeatherDisplay:10.37,2013-05-06 21:18:00,
2013-05-06 16:23:00,81.6,55.7,29.86,NW,325,1.0,4.0,41,0.00,CLR,,0.00,WeatherDisplay:10.37,2013-05-06 21:23:00,
2013-05-06 16:28:00,82.2,54.1,29.85,North,4,2.0,5.0,38,0.00,CLR,,0.00,WeatherDisplay:10.37,2013-05-06 21:28:00,
2013-05-06 16:33:00,81.9,53.8,29.86,NNW,341,1.0,3.0,38,0.00,CLR,,0.00,WeatherDisplay:10.37,2013-05-06 21:33:00,
2013-05-06 16:38:00,82.4,54.9,29.85,North,353,2.0,4.0,39,0.00,CLR,,0.00,WeatherDisplay:10.37,2013-05-06 21:38:00,
2013-05-06 16:43:00,81.5,55.5,29.85,NNW,342,1.0,3.0,41,0.00,CLR,,0.00,WeatherDisplay:10.37,2013-05-06 21:43:00,
2013-05-06 16:48:00,80.9,54.4,29.85,WNW,284,1.0,5.0,40,0.00,CLR,,0.00,WeatherDisplay:10.37,2013-05-06 21:48:00,
2013-05-06 16:53:00,80.1,54.9,29.85,WNW,285,1.0,4.0,42,0.00,CLR,,0.00,WeatherDisplay:10.37,2013-05-06 21:53:00,
2013-05-06 16:58:00,80.0,54.9,29.85,NNW,331,1.0,3.0,42,0.00,CLR,,0.00,WeatherDisplay:10.37,2013-05-06 21:58:00,
2013-05-06 17:03:00,81.0,54.4,29.85,NNW,339,1.0,2.0,40,0.00,CLR,,0.00,WeatherDisplay:10.37,2013-05-06 22:03:00,
2013-05-06 17:08:00,81.7,52.8,29.85,North,357,0.0,2.0,37,0.00,CLR,,0.00,WeatherDisplay:10.37,2013-05-06 22:08:00,
2013-05-06 17:13:00,81.9,53.8,29.85,NNW,334,2.0,6.0,38,0.00,CLR,,0.00,WeatherDisplay:10.37,2013-05-06 22:13:00,
2013-05-06 17:18:00,82.2,53.4,29.85,NW,322,1.0,3.0,37,0.00,CLR,,0.00,WeatherDisplay:10.37,2013-05-06 22:18:00,
2013-05-06 17:23:00,83.8,56.2,29.85,NE,45,3.5,3.5,39,0.00,CLR,,0.00,WeatherDisplay:10.37,2013-05-06 22:23:00,
2013-05-06 17:28:00,85.7,56.4,29.85,WNW,284,1.0,2.0,37,0.00,CLR,,0.00,WeatherDisplay:10.37,2013-05-06 22:28:00,
2013-05-06 17:33:00,86.5,54.8,29.86,WNW,288,1.0,4.0,34,0.00,CLR,,0.00,WeatherDisplay:10.37,2013-05-06 22:33:00,
2013-05-06 17:38:00,85.6,54.0,29.86,NW,315,2.3,2.3,34,0.00,CLR,,0.00,WeatherDisplay:10.37,2013-05-06 22:38:00,
2013-05-06 17:43:00,85.7,54.9,29.86,WNW,288,1.0,3.0,35,0.00,CLR,,0.00,WeatherDisplay:10.37,2013-05-06 22:43:00,
2013-05-06 17:48:00,85.3,54.6,29.86,NW,314,2.0,4.0,35,0.00,CLR,,0.00,WeatherDisplay:10.37,2013-05-06 22:48:00,
2013-05-06 17:53:00,83.3,54.3,29.85,NW,315,3.5,3.5,37,0.00,CLR,,0.00,WeatherDisplay:10.37,2013-05-06 22:53:00,
2013-05-06 17:58:00,81.0,51.5,29.85,NW,318,1.0,2.0,36,0.00,CLR,,0.00,WeatherDisplay:10.37,2013-05-06 22:58:00,
2013-05-06 18:03:00,79.5,53.8,29.85,NW,326,0.0,2.0,41,0.00,CLR,,0.00,WeatherDisplay:10.37,2013-05-06 23:03:00,
2013-05-06 18:08:00,79.5,54.4,29.85,NW,315,2.3,0.0,42,0.00,CLR,,0.00,WeatherDisplay:10.37,2013-05-06 23:08:00,
2013-05-06 18:13:00,79.0,53.9,29.85,NE,45,2.3,0.0,42,0.00,CLR,,0.00,WeatherDisplay:10.37,2013-05-06 23:13:00,
2013-05-06 18:18:00,78.4,54.7,29.85,West,270,1.1,0.0,44,0.00,CLR,,0.00,WeatherDisplay:10.37,2013-05-06 23:18:00,
2013-05-06 18:23:00,78.1,55.0,29.85,North,356,0.0,2.0,45,0.00,CLR,,0.00,WeatherDisplay:10.37,2013-05-06 23:23:00,
2013-05-06 18:28:00,77.7,55.3,29.85,NNE,17,0.0,2.0,46,0.00,CLR,,0.00,WeatherDisplay:10.37,2013-05-06 23:28:00,
2013-05-06 18:33:00,77.2,55.4,29.85,NW,318,1.0,4.0,47,0.00,CLR,,0.00,WeatherDisplay:10.37,2013-05-06 23:33:00,
2013-05-06 18:38:00,76.6,55.5,29.85,WNW,299,0.0,2.0,48,0.00,CLR,,0.00,WeatherDisplay:10.37,2013-05-06 23:38:00,
2013-05-06 18:43:00,76.2,56.8,29.85,WNW,296,0.0,2.0,51,0.00,CLR,,0.00,WeatherDisplay:10.37,2013-05-06 23:43:00,
2013-05-06 18:48:00,75.7,56.3,29.85,West,279,1.0,3.0,51,0.00,CLR,,0.00,WeatherDisplay:10.37,2013-05-06 23:48:00,
2013-05-06 18:53:00,75.3,55.4,29.85,NW,308,0.0,3.0,50,0.00,CLR,,0.00,WeatherDisplay:10.37,2013-05-06 23:53:00,
2013-05-06 18:58:00,74.8,56.6,29.85,WNW,297,0.0,2.0,53,0.00,CLR,,0.00,WeatherDisplay:10.37,2013-05-06 23:58:00,
2013-05-06 19:03:00,74.5,56.2,29.85,NW,315,1.1,0.0,53,0.00,CLR,,0.00,WeatherDisplay:10.37,2013-05-07 00:03:00,
2013-05-06 19:08:00,74.4,56.1,29.85,NW,306,0.0,1.0,53,0.00,CLR,,0.00,WeatherDisplay:10.37,2013-05-07 00:08:00,
2013-05-06 19:13:00,74.0,56.3,29.85,WNW,282,0.0,0.0,54,0.00,CLR,,0.00,WeatherDisplay:10.37,2013-05-07 00:13:00,
2013-05-06 19:18:00,73.6,56.4,29.85,SW,225,0.0,0.0,55,0.00,CLR,,0.00,WeatherDisplay:10.37,2013-05-07 00:18:00,
2013-05-06 19:23:00,73.3,56.6,29.85,SW,232,0.0,0.0,56,0.00,CLR,,0.00,WeatherDisplay:10.37,2013-05-07 00:23:00,
2013-05-06 19:28:00,73.0,56.4,29.85,West,269,0.0,0.0,56,0.00,CLR,,0.00,WeatherDisplay:10.37,2013-05-07 00:28:00,
2013-05-06 19:33:00,72.9,56.7,29.85,West,270,0.0,0.0,57,0.00,CLR,,0.00,WeatherDisplay:10.37,2013-05-07 00:33:00,
2013-05-06 19:38:00,72.5,56.9,29.85,West,270,0.0,0.0,58,0.00,CLR,,0.00,WeatherDisplay:10.37,2013-05-07 00:38:00,
2013-05-06 19:43:00,72.1,56.5,29.85,West,270,0.0,0.0,58,0.00,CLR,,0.00,WeatherDisplay:10.37,2013-05-07 00:43:00,
2013-05-06 19:48:00,71.8,56.7,29.85,West,270,0.0,0.0,59,0.00,CLR,,0.00,WeatherDisplay:10.37,2013-05-07 00:48:00,
2013-05-06 19:53:00,71.5,56.9,29.85,West,270,0.0,0.0,60,0.00,CLR,,0.00,WeatherDisplay:10.37,2013-05-07 00:53:00,
2013-05-06 19:58:00,71.2,57.5,29.85,West,270,0.0,0.0,62,0.00,CLR,,0.00,WeatherDisplay:10.37,2013-05-07 00:58:00,
2013-05-06 20:03:00,70.8,57.6,29.86,West,270,0.0,0.0,63,0.00,CLR,,0.00,WeatherDisplay:10.37,2013-05-07 01:03:00,
2013-05-06 20:08:00,70.3,57.1,29.85,West,270,0.0,0.0,63,0.00,CLR,,0.00,WeatherDisplay:10.37,2013-05-07 01:08:00,
2013-05-06 20:13:00,69.9,56.8,29.86,West,270,0.0,0.0,63,0.00,CLR,,0.00,WeatherDisplay:10.37,2013-05-07 01:13:00,
2013-05-06 20:18:00,69.4,57.2,29.86,West,270,0.0,0.0,65,0.00,CLR,,0.00,WeatherDisplay:10.37,2013-05-07 01:18:00,
2013-05-06 20:23:00,69.1,56.8,29.86,WSW,257,0.0,0.0,65,0.00,CLR,,0.00,WeatherDisplay:10.37,2013-05-07 01:23:00,
2013-05-06 20:28:00,68.7,56.9,29.86,SW,225,0.0,0.0,66,0.00,CLR,,0.00,WeatherDisplay:10.37,2013-05-07 01:28:00,
2013-05-06 20:33:00,68.4,57.1,29.86,SW,225,0.0,0.0,67,0.00,CLR,,0.00,WeatherDisplay:10.37,2013-05-07 01:33:00,
2013-05-06 20:38:00,68.2,57.2,29.86,SW,225,0.0,0.0,68,0.00,CLR,,0.00,WeatherDisplay:10.37,2013-05-07 01:38:00,
2013-05-06 20:43:00,68.0,57.0,29.86,SW,225,0.0,0.0,68,0.00,CLR,,0.00,WeatherDisplay:10.37,2013-05-07 01:43:00,
2013-05-06 20:48:00,67.8,57.3,29.87,SW,225,0.0,0.0,69,0.00,CLR,,0.00,WeatherDisplay:10.37,2013-05-07 01:48:00,
2013-05-06 20:53:00,67.3,57.2,29.87,SW,225,0.0,0.0,70,0.00,CLR,,0.00,WeatherDisplay:10.37,2013-05-07 01:53:00,
2013-05-06 20:58:00,67.1,57.4,29.87,SW,225,0.0,0.0,71,0.00,CLR,,0.00,WeatherDisplay:10.37,2013-05-07 01:58:00,
2013-05-06 21:03:00,66.9,57.6,29.87,SW,225,0.0,0.0,72,0.00,CLR,,0.00,WeatherDisplay:10.37,2013-05-07 02:03:00,
2013-05-06 21:08:00,66.7,57.8,29.86,SW,225,0.0,0.0,73,0.00,CLR,,0.00,WeatherDisplay:10.37,2013-05-07 02:08:00,
2013-05-06 21:13:00,66.5,57.2,29.87,SW,225,0.0,0.0,72,0.00,CLR,,0.00,WeatherDisplay:10.37,2013-05-07 02:13:00,
2013-05-06 21:18:00,66.2,56.9,29.86,SW,225,0.0,0.0,72,0.00,CLR,,0.00,WeatherDisplay:10.37,2013-05-07 02:18:00,
2013-05-06 21:23:00,66.2,57.3,29.86,SW,225,0.0,0.0,73,0.00,CLR,,0.00,WeatherDisplay:10.37,2013-05-07 02:23:00,
2013-05-06 21:28:00,66.0,57.5,29.86,SW,225,0.0,0.0,74,0.00,CLR,,0.00,WeatherDisplay:10.37,2013-05-07 02:28:00,
2013-05-06 21:33:00,66.0,57.9,29.86,SW,225,0.0,0.0,75,0.00,CLR,,0.00,WeatherDisplay:10.37,2013-05-07 02:33:00,
2013-05-06 21:38:00,65.8,58.1,29.87,SW,225,0.0,0.0,76,0.00,CLR,,0.00,WeatherDisplay:10.37,2013-05-07 02:38:00,
2013-05-06 21:43:00,65.7,58.3,29.88,SW,225,0.0,0.0,77,0.00,CLR,,0.00,WeatherDisplay:10.37,2013-05-07 02:43:00,
2013-05-06 21:48:00,65.3,57.9,29.88,SW,234,0.0,0.0,77,0.00,CLR,,0.00,WeatherDisplay:10.37,2013-05-07 02:48:00,
2013-05-06 21:53:00,65.1,58.1,29.88,WSW,257,0.0,0.0,78,0.00,CLR,,0.00,WeatherDisplay:10.37,2013-05-07 02:53:00,
2013-05-06 21:58:00,64.8,57.7,29.88,NW,316,0.0,0.0,78,0.00,CLR,,0.00,WeatherDisplay:10.37,2013-05-07 02:58:00,
2013-05-06 22:03:00,64.4,57.4,29.88,North,0,0.0,0.0,78,0.00,CLR,,0.00,WeatherDisplay:10.37,2013-05-07 03:03:00,
2013-05-06 22:08:00,64.2,57.2,29.88,North,0,0.0,0.0,78,0.00,CLR,,0.00,WeatherDisplay:10.37,2013-05-07 03:08:00,
2013-05-06 22:13:00,63.9,57.2,29.88,North,0,0.0,0.0,79,0.00,CLR,,0.00,WeatherDisplay:10.37,2013-05-07 03:13:00,
2013-05-06 22:18:00,63.7,56.7,29.88,North,0,0.0,0.0,78,0.00,CLR,,0.00,WeatherDisplay:10.37,2013-05-07 03:18:00,
2013-05-06 22:23:00,63.5,56.9,29.88,North,0,0.0,0.0,79,0.00,CLR,,0.00,WeatherDisplay:10.37,2013-05-07 03:23:00,
2013-05-06 22:28:00,63.3,56.7,29.88,North,349,0.0,0.0,79,0.00,CLR,,0.00,WeatherDisplay:10.37,2013-05-07 03:28:00,
2013-05-06 22:33:00,63.0,56.7,29.88,NW,326,0.0,0.0,80,0.00,CLR,,0.00,WeatherDisplay:10.37,2013-05-07 03:33:00,
2013-05-06 22:38:00,63.0,57.0,29.88,NW,315,0.0,0.0,81,0.00,CLR,,0.00,WeatherDisplay:10.37,2013-05-07 03:38:00,
2013-05-06 22:43:00,63.0,57.0,29.88,NW,315,0.0,0.0,81,0.00,CLR,,0.00,WeatherDisplay:10.37,2013-05-07 03:43:00,
2013-05-06 22:48:00,62.8,57.2,29.88,NW,315,0.0,0.0,82,0.00,CLR,,0.00,WeatherDisplay:10.37,2013-05-07 03:48:00,
2013-05-06 22:53:00,62.6,57.0,29.88,NW,315,0.0,0.0,82,0.00,CLR,,0.00,WeatherDisplay:10.37,2013-05-07 03:53:00,
2013-05-06 22:58:00,62.6,57.0,29.88,NW,315,0.0,0.0,82,0.00,CLR,,0.00,WeatherDisplay:10.37,2013-05-07 03:58:00,
2013-05-06 23:01:00,62.4,57.2,29.88,NW,315,0.0,0.0,83,0.00,CLR,,0.00,WeatherDisplay:10.37,2013-05-07 04:01:00,
2013-05-06 23:02:00,62.4,57.2,29.88,NW,315,0.0,0.0,83,0.00,CLR,,0.00,WeatherDisplay:10.37,2013-05-07 04:02:00,
2013-05-06 23:03:00,62.4,57.2,29.88,NW,315,0.0,0.0,83,0.00,CLR,,0.00,WeatherDisplay:10.37,2013-05-07 04:03:00,
2013-05-06 23:08:00,62.4,57.2,29.88,NW,315,0.0,0.0,83,0.00,CLR,,0.00,WeatherDisplay:10.37,2013-05-07 04:08:00,
2013-05-06 23:13:00,62.4,57.2,29.88,NW,315,0.0,0.0,83,0.00,CLR,,0.00,WeatherDisplay:10.37,2013-05-07 04:13:00,
2013-05-06 23:18:00,62.4,57.2,29.88,NW,315,0.0,0.0,83,0.00,CLR,,0.00,WeatherDisplay:10.37,2013-05-07 04:18:00,
2013-05-06 23:23:00,62.4,57.5,29.88,WNW,297,0.0,0.0,84,0.00,CLR,,0.00,WeatherDisplay:10.37,2013-05-07 04:23:00,
2013-05-06 23:28:00,62.2,57.3,29.88,West,274,0.0,0.0,84,0.00,CLR,,0.00,WeatherDisplay:10.37,2013-05-07 04:28:00,
2013-05-06 23:33:00,62.2,57.3,29.88,West,270,0.0,0.0,84,0.00,CLR,,0.00,WeatherDisplay:10.37,2013-05-07 04:33:00,
2013-05-06 23:38:00,62.2,57.3,29.88,West,270,0.0,0.0,84,0.00,CLR,,0.00,WeatherDisplay:10.37,2013-05-07 04:38:00,
2013-05-06 23:43:00,62.1,56.8,29.88,West,270,0.0,0.0,83,0.00,CLR,,0.00,WeatherDisplay:10.37,2013-05-07 04:43:00,
2013-05-06 23:48:00,62.1,57.2,29.88,West,270,0.0,0.0,84,0.00,CLR,,0.00,WeatherDisplay:10.37,2013-05-07 04:48:00,
2013-05-06 23:53:00,61.9,57.0,29.88,West,270,0.0,0.0,84,0.00,CLR,,0.00,WeatherDisplay:10.37,2013-05-07 04:53:00,
2013-05-06 23:58:00,61.7,56.8,29.88,West,270,0.0,0.0,84,0.00,CLR,,0.00,WeatherDisplay:10.37,2013-05-07 04:58:00,